User: anonymous   Login
Location: Bonn
(50.7330°N, 7.1000°E)
Time: 10:42:04
(UTC+01:00)
Language:

Iridium 84 - Orbit

View from above orbital plane
View from above orbital plane
View from above satellite
View from above satellite

Ground track
Ground track

The orbit data is extracted from the following two-line orbital elements,

1 25530U 98066D   14332.52592654  .00000549  00000-0  18887-3 0  8931
2 25530 086.3964 019.4581 0002221 108.6886 251.4551 14.34218372843468
Epoch (UTC): 28 November 2014 12:37:20
Eccentricity: 0.0002221
inclination: 86.3964°
perigee height: 776 km
apogee height: 779 km
right ascension of ascending node: 19.4581°
argument of perigee: 108.6886°
revolutions per day: 14.34218372
mean anomaly at epoch: 251.4551°
orbit number at epoch: 84346

The dashed part of the orbit path shows where the satellite is in the earth's shadow,  

DLR